Regional Weather Roundup
Issued by NWS

Home | Current Version | Previous Version | Text Only | Print | Product List | Glossary Off
Versions: 1 2 3 4 5 6 7 8 9 10 11 12 13 14 15 16 17 18 19 20 21 22 23 24 25 26 27

000
ASUS45 KTFX 270210
RWRMT
MONTANA REGIONAL WEATHER ROUNDUP
NATIONAL WEATHER SERVICE GREAT FALLS MT
800 PM MDT TUE JUL 26 2016

NOTE: "FAIR" INDICATES FEW OR NO CLOUDS BELOW 12000 FEET WITH NO
SIGNIFICANT WEATHER AND/OR OBSTRUCTIONS TO VISIBILITY.

MTZ001>007-043-270300-
WEST OF THE DIVIDE

CITY           SKY/WX    TMP DP  RH WIND       PRES   REMARKS
KALISPELL      MOSUNNY   79  49  34 N8        30.02R
MISSOULA       MOSUNNY   83  51  33 N15       30.03R
BUTTE          CLOUDY    72  39  30 S17G25    30.19F
MULLAN PASS    MOSUNNY   70  48  45 VRB3      30.23R
ANACONDA         N/A     73  39  29 SW10G22   30.14R
DEER LODGE       N/A     72  45  37 SW14G31   30.17R
EUREKA           N/A     82  48  30 CALM      30.04S
HAMILTON         N/A     81  54  39 CALM      30.04R
LIBBY            N/A     84  45  24 NW5       30.01S
PLAINS           N/A     88  50  27 W2        30.01R
$$

MTZ008-052>055-270300-
SOUTHWEST MONTANA

CITY           SKY/WX    TMP DP  RH WIND       PRES   REMARKS
BOZEMAN        CLOUDY    78  50  37 S6        30.10F
DILLON         LGT RAIN  63  49  60 E14       30.22R
W YELLOWSTONE  CLOUDY    70  36  28 NW3G17    30.27F
ENNIS          CLOUDY    72  43  35 W31G51    30.25R
THREE FORKS      N/A     76  17  11 CALM      30.09R
TWIN BRIDGES     N/A     69  45  42 NW3       30.19R
$$

MTZ009-010-012-014-046-048-049-054-270300-
EAST SLOPES AND CENTRAL MONTANA

CITY           SKY/WX    TMP DP  RH WIND       PRES   REMARKS
CUT BANK       CLOUDY    68  56  65 NW3       30.08F
GREAT FALLS    CLOUDY    69  54  58 SE12      30.09R
MALMSTROM AFB  CLOUDY    65  56  72 SE10G18   30.09S
HELENA         PTCLDY    76  51  41 N18       30.06R
CHOTEAU          N/A     66  57  72 N7        30.11S
CONRAD           N/A     67  63  87 SW3       30.09F
$$

MTZ011-013-016-021-045-047-050-051-270300-
NORTH CENTRAL MONTANA

CITY           SKY/WX    TMP DP  RH WIND       PRES   REMARKS
HAVRE          TSTM      61  59  93 N30G37    30.09R FOG
LEWISTOWN      LGT RAIN  72  50  45 W13G23    30.08F
N BAR RANCH      N/A     75  43  31 CALM      30.10F
CHINOOK          N/A     66  57  72 W24G36    30.08R
$$

MTZ017>020-022>027-061-062-270300-
NORTHEAST MONTANA

CITY           SKY/WX    TMP DP  RH WIND       PRES   REMARKS
GLASGOW        CLOUDY    74  59  59 NE17      30.01F
JORDAN           N/A     82  56  40 E17       30.01S
SIDNEY         CLEAR     77  59  53 NE10      30.04R
WOLF POINT     CLEAR     78  56  46 E14       30.05R
PLENTYWOOD       N/A     72  61  68 NE3       30.09S
POPLAR           N/A     73  55  53 NE13      30.06R
SCOBEY           N/A     69  52  54 NE3       30.08S
$$

MTZ028>42-056>058-270300-
SOUTHCENTRAL AND SOUTHEAST MONTANA

CITY           SKY/WX    TMP DP  RH WIND       PRES   REMARKS
BAKER          CLEAR     75  57  53 E14       30.08R
BILLINGS       CLOUDY    86  41  20 NW20G29   30.04R THUNDER
LIVINGSTON     PTCLDY    76  41  28 NW5       30.10F
MILES CITY     CLEAR     84  50  30 E12       30.01R
LAUREL           N/A     72  54  53 W23       30.07R
ROUNDUP          N/A     83  50  31 CALM      29.93F
$$

REGIONAL REPORTS...DAKOTAS

CITY           SKY/WX    TMP DP  RH WIND       PRES   REMARKS
WILLISTON      PTCLDY    76  55  48 NE8       30.06S
MINOT          CLOUDY    73  60  63 N7        30.04F
DICKINSON      CLEAR     68  58  70 E5        30.05S
BEACH            N/A     72  59  64 E7        30.11R
CROSBY           N/A     68  63  83 NE6       30.10R
WATFORD CITY     N/A    N/A N/A N/A MISG        N/A
BISMARCK       MOCLDY    75  60  59 NE9       30.02R
GRAND FORKS    CLOUDY    75  64  68 N9        29.97S
FARGO          LGT RAIN  73  67  81 SW6       29.94S
BUFFALO SD       N/A     78  58  49 NE16      30.00R
RAPID CITY     CLOUDY    79  55  43 N16       29.98S
$$

REGIONAL REPORTS...WYOMING/IDAHO/WASHINGTON

CITY           SKY/WX    TMP DP  RH WIND       PRES   REMARKS
GILLETTE       CLOUDY    81  48  31 NE18G24   30.08R
SHERIDAN       PTCLDY    83  48  29 NE5       30.05R
BUFFALO WY     LGT RAIN  75  52  44 CALM      30.13S
CODY           CLEAR     81  39  22 NW10G16   30.13R
YELLOWSTONE LA   N/A     66  35  31 VRB5G18   30.37R
IDAHO FALLS    CLEAR     82  43  25 NE8       30.07R
SALMON         MOSUNNY   75  48  38 NE6       30.07S
BOISE          SUNNY     97  37  12 NW12      29.91S HX  92
SPOKANE        PTSUNNY   87  48  25 NE15      29.97S
$$

REGIONAL REPORTS...ALBERTA

CITY           SKY/WX    TMP DP  RH WIND       PRES   REMARKS
EDMONTON       MOSUNNY   75  61  60 E3        30.03R
CALGARY        PTSUNNY   72  61  68 E7        30.11R THUNDER
LETHBRIDGE     PTSUNNY   68  61  77 CALM      30.07F
MEDICINE HAT   LGT RAIN  63  63 100 S15       30.05F FOG
WATERTON GATE    N/A     64  57  77 N2          N/A
MILK RIVER       N/A     63  57  82 N9          N/A
ONEFOUR          N/A     59  55  88 NE21G28     N/A
$$

REGIONAL REPORTS...SASKATCHEWAN

CITY           SKY/WX    TMP DP  RH WIND       PRES   REMARKS
SWIFT CURRENT  CLEAR     68  57  68 E10       30.10S
REGINA         MOCLDY    70  52  52 NE9       30.11R
SASKATOON      PTCLDY    73  48  40 S7        30.13R
CYPRESS HILLS    N/A     61  54  77 W6          N/A
VAL MARIE        N/A     66  59  77 NE8         N/A
ROCKGLEN         N/A     66  54  63 E1          N/A
ASSINIBOIA       N/A    N/A N/A N/A SW3         N/A
$$




USA.gov is the U.S. government's official web portal to all federal, state and local government web resources and services.